sat.trackr.live / text

‹ back to catalog

STARLINK-32317

NORAD 60918 · 2024-154R

PAYLOAD ACTIVE UNKNOWN

§ Identity

Operator
Country
US
Launch date
2024-08-31
Launch site
AFETR
Launch vehicle
Mass (kg)
RCS (m²)

Purposes: comms

External: N2YO · Heavens-Above · Gunter

§ Orbital elements

Epoch: 2026-05-25T02:59:58.532064Z

Period
94.11 min
Inclination
53.1595°
Eccentricity
0.0000974
Mean motion
15.30189954 rev/d
Perigee alt
474.6 km
Apogee alt
475.9 km
Semi-major
6,853.4 km
B*
1.2637e-5
RAAN
289.0874°
Arg perigee
98.0898°
Mean anomaly
262.0213°
Rev number
9,803

§ Raw data

STARLINK-323171 60918U 24154R   26145.12498301  .00000015  00000+0  12637-4 0  99942 60918  53.1595 289.0874 0000974  98.0898 262.0213 15.30189954 98035

JSON: /api/v1/satellites/60918 · /tle

For live sub-satellite position, see the globe view (requires WebGL).

§ Visibility from observer

Set your observer location to see the next 7 days of passes ≥ 10°. The values pass through the URL so the page stays shareable.

No JS? Fill the form by hand. The geolocation button needs JavaScript.